Regional Weather Roundup
Issued by NWS New Orleans/Baton Rouge, LA

Home | Current Version | Previous Version | Graphics & Text | Print | Product List | Glossary On
Versions: 1 2 3 4 5 6 7 8 9 10 11 12 13 14 15 16 17 18 19 20 21 22 23 24 25 26 27 28 29 30 31 32 33 34 35 36 37 38 39 40 41 42 43 44 45 46 47 48 49 50
249
ASUS44 KLIX 210905
RWRLIX
NEW ORLEANS REGIONAL WEATHER ROUNDUP
NATIONAL WEATHER SERVICE NEW ORLEANS LA
300 AM CST SUN DEC 21 2014

NOTE: "FAIR" INDICATES FEW OR NO CLOUDS BELOW 12,000 FEET WITH NO
      SIGNIFICANT WEATHER AND/OR OBSTRUCTIONS TO VISIBILITY.
      SKY/WX - SKY CONDITION AND SIGNIFICANT WEATHER.
      TMP - AIR TEMPERATURE.     DP    - DEWPOINT TEMPERATURE.
      RH  - RELATIVE HUMIDITY.   PRES  - PRESSURE.
      HI  - HEAT INDEX.          WCI   - WIND CHILL INDEX.

*  THESE STATIONS ARE NOT NWS OR FAA STATIONS AND ARE NOT UNDER
   NWS QUALITY CONTROL.

LAZ038-040-048-061>063-065>067-069-211000-
SOUTHEAST LOUISIANA

CITY           SKY/WX    TMP DP  RH WIND       PRES   REMARKS
N.O. AUDUBON     N/A     53  50  89 MISG        N/A
N.O. INTL ARPT CLOUDY    53  48  83 E7        30.13S
N.O. LAKEFRONT CLOUDY    54  48  80 NE12      30.13F
N.O. DOWNTOWN* CLOUDY    52  45  76 NE6       30.13S
SLIDELL        CLOUDY    52  47  83 N5        30.13S
BATON ROUGE    CLOUDY    47  44  90 NE3       30.13F
BOOTHVILLE     CLOUDY    54  52  93 NE9       30.10F
BELLE CHASSE   CLOUDY    53  49  86 NE6       30.13R
BOGALUSA*        N/A     50  45  80 NE6       30.16S
GALLIANO*      CLOUDY    55  51  89 MISG      30.12S
NEW ROADS*     CLOUDY    44  44  99 N3        30.15S
GONZALES*      CLOUDY    50  50 100 CALM      30.13S
HAMMOND*       NOT AVBL
HOUMA*         CLOUDY    51  49  92 NE6       30.12S
PORT FOURCHON* CLOUDY    55  52  88 NE13G20   30.13S

$$

MSZ070-080>082-211000-
SOUTHERN MISSISSIPPI

CITY           SKY/WX    TMP DP  RH WIND       PRES   REMARKS
MCCOMB         CLEAR     43  39  86 NE5       30.14F
GULFPORT       CLOUDY    50  46  86 N7        30.13S
BILOXI         CLOUDY    51  48  90 NE6       30.13S
PASCAGOULA     CLOUDY    50  47  89 N5        30.13S

$$

COASTAL OBSERVATIONS
LAKE AND NEARSHORE STATIONS

STATION/POSITION TIME  TEMP    WIND        PRES    WAVE
                       AIR SEA DIR/SP/G            HT/PER
                 (UTC) (F)     (DEG/KT/KT) (MB)    (FT/S)
PASCAGOULA       0900   51      20/  7/  9 1019.5
WAVELAND YACHT   0900   51      20/  8/ 10 1019.4
GRAND ISLE       0900   54 60   60/ 11/ 13 1019.5
SOUTHWEST PASS   0900   56                 1018.7
NEW CANAL        0900   53 56   50/ 11/ 12 1020.3
SHELL BEACH      0900   53 57   40/ 11/ 13 1019.7

OFFSHORE STATIONS

STATION/POSITION TIME  TEMP    WIND        PRES    WAVE
                       AIR SEA DIR/SP/G            HT/PER
                 (UTC) (F)     (DEG/KT/KT) (MB)    (FT/S)
64 S DAUPHIN ISL 0900   63 74   30/ 17/ 19 1017.9    5/ 6

$$




USA.gov is the U.S. government's official web portal to all federal, state and local government web resources and services.